Tracking 28052 objects as of 25-Sep-2023
HD Live streaming from Space Station
objects crossing your sky now

STARLINK-2513

Track STARLINK-2513 now!
10-day predictions
STARLINK-2513 is classified as:


NORAD ID: 48317
Int'l Code: 2021-036AT
Perigee: 553.5 km
Apogee: 555.4 km
Inclination: 53.1 °
Period: 95.6 minutes
Semi major axis: 6925 km
RCS: Unknown
Launch date: April 29, 2021
Source: United States (US)
Launch site: AIR FORCE EASTERN TEST RANGE (AFETR)
Your satellite tracking list
Your tracking list is empty




NASA's NSSDC Master Catalog

Two Line Element Set (TLE):
1 48317U 21036AT  23267.92283877  .00013604  00000-0  93132-3 0  9996
2 48317  53.0539 157.3619 0001388  66.8515 293.2620 15.06364356133003
Source of the keplerian elements: AFSPC